Terminal Aerodrome Forecast
Issued by NWS

Home | Current Version | Previous Version | Text Only | Print | Product List | Glossary On
Versions: 1 2 3 4 5 6 7 8 9 10 11 12 13 14 15 16 17 18 19 20 21 22 23 24 25 26 27 28 29 30 31 32 33 34 35 36 37
000
FTAK31 PANC 260537
TAFACD
TAF
PACD 260537Z 2606/2706 24018KT P6SM VCSH SCT050 BKN120
      TEMPO 2606/2609 24018G25KT P6SM -SHRA BKN050
     FM260900 21017G25KT P6SM VCSH SCT035 BKN050
     FM261300 18011KT P6SM SCT050
     FM261700 16015G22KT P6SM BKN050
     FM262000 16024G32KT P6SM BKN025
     FM270200 15028G38KT P6SM BKN025=

USA.gov is the U.S. government's official web portal to all federal, state and local government web resources and services.